EW7112 Weather Reports


time (UTC)temp
C
wind
direction
speed
KPH
gust
KPH
rain 1hr
cm
rain 24hr
cm
rain mn
cm
humidity
%
barometer
mb
20260901011521 35 113 0.0 4.8 0.00 0.00 0.00 34 990.7
20260901010021 35 108 1.6 6.4 0.00 0.00 0.00 34 990.8
20260901004522 35 131 1.6 8.0 0.00 0.00 0.00 34 990.7
20260901003034 36 92 1.6 8.0 0.00 0.00 0.00 33 990.7
20260901001520 36 122 3.2 9.7 0.00 0.00 0.00 32 990.7
20260901000030 36 117 4.8 12.9 0.00 0.00 0.00 32 990.7
20260831234517 36 129 4.8 14.5 0.00 0.00 0.00 32 990.7
20260831233016 37 105 1.6 11.3 0.00 0.00 0.00 32 990.7
20260831231516 37 103 4.8 12.9 0.00 0.00 0.00 32 990.7
20260831230016 37 174 3.2 12.9 0.00 0.00 0.00 32 990.8
20260831224510 37 42 4.8 12.9 0.00 0.00 0.00 31 990.8
20260831223009 37 110 3.2 12.9 0.00 0.00 0.00 33 991.0
20260831221506 37 84 1.6 9.7 0.00 0.00 0.00 33 991.0
20260831220005 37 127 4.8 12.9 0.00 0.00 0.00 33 991.2
20260831214502 37 133 4.8 16.1 0.00 0.00 0.00 32 991.4
20260831213004 38 119 6.4 17.7 0.00 0.00 0.00 30 991.3
20260831211603 37 113 4.8 20.9 0.00 0.00 0.00 32 991.5
20260831210055 37 91 4.8 16.1 0.00 0.00 0.00 32 991.6
20260831204554 37 131 3.2 14.5 0.00 0.00 0.00 33 991.9
20260831203100 37 98 6.4 16.1 0.00 0.00 0.00 32 992.1
20260831201553 37 165 4.8 12.9 0.00 0.00 0.00 32 992.2
20260831200050 37 114 4.8 12.9 0.00 0.00 0.00 34 992.5
20260831194554 36 359 3.2 11.3 0.00 0.00 0.00 34 992.7
20260831193043 36 93 1.6 11.3 0.00 0.00 0.00 36 992.9
20260831191541 37 135 1.6 14.5 0.00 0.00 0.00 34 993.0
20260831190052 36 127 1.6 19.3 0.00 0.00 0.00 36 993.1
20260831184535 36 201 8.0 16.1 0.00 0.00 0.00 36 993.3
20260831183032 36 226 6.4 20.9 0.00 0.00 0.00 37 993.5
20260831181530 36 89 6.4 14.5 0.00 0.00 0.00 39 993.8
20260831180026 35 325 1.6 12.9 0.00 0.00 0.00 41 994.0
20260831174524 35 75 6.4 14.5 0.00 0.00 0.00 42 994.4
20260831173022 35 226 3.2 12.9 0.00 0.00 0.00 43 994.6
20260831171520 35 103 6.4 12.9 0.00 0.00 0.00 42 994.6
20260831170017 34 240 4.8 11.3 0.00 0.00 0.00 44 994.8
20260831164522 33 199 3.2 11.3 0.00 0.00 0.00 44 994.8
20260831163010 33 277 3.2 11.3 0.00 0.00 0.00 45 994.8
20260831161510 32 242 4.8 14.5 0.00 0.00 0.00 46 995.0
20260831160005 32 212 1.6 12.9 0.00 0.00 0.00 48 995.0
20260831154503 32 168 1.6 12.9 0.00 0.00 0.00 50 994.9
20260831153059 31 359 3.2 11.3 0.00 0.00 0.00 51 994.9
20260831151556 31 219 3.2 9.7 0.00 0.00 0.00 53 994.9
20260831150103 31 229 1.6 12.9 0.00 0.00 0.00 56 994.7
20260831144558 30 302 1.6 11.3 0.00 0.00 0.00 58 994.5
20260831143049 30 176 4.8 11.3 0.00 0.00 0.00 60 994.6
20260831141548 29 163 3.2 11.3 0.00 0.00 0.00 62 994.7
20260831140043 28 108 4.8 9.7 0.00 0.00 0.00 64 994.9
20260831134541 28 94 3.2 8.0 0.00 0.00 0.00 67 994.6
20260831133037 27 219 3.2 6.4 0.00 0.00 0.00 68 994.3
20260831131534 27 113 0.0 6.4 0.00 0.00 0.00 69 994.1
20260831130031 27 109 1.6 6.4 0.00 0.00 0.00 70 994.0
20260831124529 27 188 0.0 3.2 0.00 0.00 0.00 69 993.5
20260831123026 27 213 0.0 4.8 0.00 0.00 0.00 69 993.3
20260831121524 27 138 0.0 1.6 0.00 0.00 0.00 68 993.2
20260831120035 27 139 0.0 1.6 0.00 0.00 0.00 67 993.0
20260831114524 27 139 0.0 3.2 0.00 0.00 0.00 66 992.9
20260831113019 27 139 0.0 3.2 0.00 0.00 0.00 66 992.8
20260831111514 27 139 0.0 1.6 0.00 0.00 0.00 65 992.6
20260831110010 28 139 0.0 4.8 0.00 0.00 0.00 65 992.5
20260831104510 28 194 0.0 4.8 0.00 0.00 0.00 64 992.3
20260831103008 28 209 3.2 8.0 0.00 0.00 0.00 63 992.4
20260831101504 28 153 0.0 1.6 0.00 0.00 0.00 62 992.3
20260831100000 28 156 0.0 3.2 0.00 0.00 0.00 61 992.4
20260831094604 28 131 0.0 8.0 0.00 0.00 0.00 61 992.2
20260831093057 28 220 1.6 6.4 0.00 0.00 0.00 60 992.2
20260831091601 29 182 1.6 9.7 0.00 0.00 0.00 59 992.0
20260831090053 29 221 3.2 8.0 0.00 0.00 0.00 58 992.0
20260831084551 29 236 1.6 12.9 0.00 0.00 0.00 57 991.9
20260831083050 29 197 1.6 12.9 0.00 0.00 0.00 56 992.0
20260831081550 30 186 3.2 9.7 0.00 0.00 0.00 55 992.0
20260831080100 30 230 4.8 16.1 0.00 0.00 0.00 54 992.0
20260831074542 30 198 4.8 12.9 0.00 0.00 0.00 53 991.8
20260831073102 30 226 4.8 8.0 0.00 0.00 0.00 51 991.8
20260831071550 30 205 1.6 9.7 0.00 0.00 0.00 50 991.7
20260831070039 30 237 1.6 6.4 0.00 0.00 0.00 50 991.6
20260831064541 30 205 0.0 4.8 0.00 0.00 0.00 51 991.8
20260831063042 30 205 0.0 1.6 0.00 0.00 0.00 50 991.8
20260831061533 31 205 0.0 1.6 0.00 0.00 0.00 51 991.7
20260831060030 31 205 0.0 3.2 0.00 0.00 0.00 49 991.8
20260831054528 31 200 0.0 3.2 0.00 0.00 0.00 49 992.0
20260831053025 31 116 0.0 3.2 0.00 0.00 0.00 47 991.8
20260831051526 32 140 0.0 1.6 0.00 0.00 0.00 47 991.7
20260831050020 32 135 0.0 3.2 0.00 0.00 0.00 46 991.6
20260831044520 32 131 0.0 4.8 0.00 0.00 0.00 45 991.5
20260831043019 32 105 0.0 3.2 0.00 0.00 0.00 45 991.6
20260831041519 32 103 0.0 3.2 0.00 0.00 0.00 45 991.4
20260831040018 32 181 0.0 3.2 0.00 0.00 0.00 44 991.4
20260831034527 33 139 0.0 3.2 0.00 0.00 0.00 43 991.5
20260831033032 33 139 0.0 3.2 0.00 0.00 0.00 43 991.3
20260831031518 33 99 1.6 6.4 0.00 0.00 0.00 42 991.2
20260831030016 33 94 1.6 4.8 0.00 0.00 0.00 42 991.2
20260831024516 33 136 1.6 8.0 0.00 0.00 0.00 41 991.0
20260831023015 33 114 1.6 4.8 0.00 0.00 0.00 41 990.8
20260831021529 34 101 1.6 4.8 0.00 0.00 0.00 40 990.6
20260831020015 34 137 1.6 6.4 0.00 0.00 0.00 39 990.2
20260831014514 35 139 3.2 8.0 0.00 0.00 0.00 38 990.0
20260831013015 35 96 3.2 6.4 0.00 0.00 0.00 37 989.9